Location: Buchberg
(46.9333°N, 15.8500°E)
Time: 09:52:43
(UTC+00:00)

Cosmos 2233 Rocket - Pass Details

Date: 14 July 2020
Orbit: 954 x 990 km, 82.9° (Epoch: 07 August)

Event Time Altitude Azimuth Distance (km) Brightness Sun altitude
Exits shadow 00:55:02 16° 166° (SSE) 2,302 5.5 -16.9°
Maximum altitude 00:59:57 57° 92° (E) 1,139 4.5 -16.5°
Drops below altitude 10° 01:06:04 10° 16° (NNE) 2,740 7.6 -16.0°
Sets 01:08:38 0° 13° (NNE) 3,697 8.5 -15.8°
